Wind_Speed
14 13 16 16 17 17 17 17 16 16 16 16 17 17 17 16 16 16 15 15 15 13 13 13 12 13 13 14 16 15 15 15 16 15 16 16 16 17 18 18 18 18 18
16 15 18 19 19 19 17 16 15 15 15 14 14 14 15 15 16 17 18 17 17 16 15 14 14 15 16 16 17 18 18 18 18 17 17 18 18 19 19 19 19 19 19
19 18 18 19 18 18 18 18 17 17 15 15 15 15 15 15 16 16 17 17 17 17 18 18 18 18 18 19 19 19 20 20 20 19 19 19 19 19 20 20 19 20 21
20 20 20 19 20 17 18 17 17 16 16 16 17 16 16 16 17 16 17 17 17 19 20 20 21 20 21 21 21 22 21 21 21 20 20 21 20 19 19 22 21 20 20
21 21 20 19 20 18 17 17 16 16 16 16 16 17 18 18 18 17 17 16 16 17 18 19 21 20 21 21 21 21 22 23 22 22 22 21 22 22 22 21 21 20 21
21 20 21 20 20 19 19 19 19 19 19 18 17 17 17 17 19 19 18 18 18 17 17 18 17 18 20 20 21 21 22 22 23 23 23 23 23 22 20 20 20 21 23
21 21 23 24 24 21 21 20 21 20 20 20 20 20 20 19 18 18 19 19 19 19 17 18 19 18 18 19 20 20 21 21 21 21 21 21 21 20 21 21 23 23 25
24 24 25 26 26 26 26 24 24 23 22 22 22 21 21 20 20 18 18 17 17 18 18 18 19 19 19 20 19 20 20 21 20 21 21 21 21 21 23 24 25 25 27
28 28 28 28 27 28 26 25 24 23 23 23 23 22 22 22 22 21 20 19 18 17 18 19 20 20 20 21 21 21 21 21 22 22 22 23 23 24 25 27 28 28 28
31 31 32 30 29 28 26 25 25 25 24 23 23 22 22 22 22 22 22 21 20 19 19 19 20 20 20 20 21 20 21 22 23 24 25 26 26 27 28 29 30 31 30
32 33 32 31 31 30 28 27 27 26 25 24 24 23 23 24 23 23 22 23 23 23 22 22 22 23 23 22 22 22 22 23 23 25 27 28 29 31 31 32 32 32 31
29 31 31 30 31 31 30 29 28 27 26 26 25 26 25 24 24 23 24 24 24 24 23 23 23 23 23 23 23 23 23 23 23 24 26 27 29 31 32 32 33 33 33
29 29 29 30 30 30 30 29 28 28 28 27 28 27 25 26 25 25 25 25 25 25 25 24 24 24 25 25 24 25 25 26 27 28 27 28 28 28 28 30 30 30 30
27 28 29 30 30 29 29 29 29 28 29 29 30 29 28 26 27 26 26 27 27 27 26 26 26 26 26 26 26 26 26 26 27 27 27 27 27 27 27 28 28 28 29
28 30 31 33 32 31 30 31 30 29 30 32 32 30 27 28 28 28 28 28 29 29 28 29 28 26 25 24 25 25 25 26 26 25 26 26 26 26 27 28 28 29 29
29 29 32 33 33 34 33 35 35 34 34 34 33 31 29 29 29 29 28 29 29 29 28 29 29 27 27 26 26 26 26 26 25 24 24 24 25 26 27 28 29 30 29
31 31 32 34 35 34 34 36 37 37 37 36 36 33 30 29 29 29 29 28 29 29 27 28 27 27 27 26 25 25 25 25 25 24 25 25 26 27 27 28 29 30 30
36 36 36 37 37 36 36 37 38 39 40 41 38 35 33 31 31 31 30 30 32 30 27 28 27 27 27 26 27 27 27 26 27 27 26 27 29 29 28 29 30 29 30
38 40 39 40 40 39 39 39 41 41 41 42 42 40 37 34 35 34 32 32 34 33 30 30 29 28 27 28 28 27 28 29 29 28 30 30 31 33 33 30 30 29 30
41 42 41 40 43 43 43 43 43 43 44 44 43 43 43 40 39 37 35 36 37 36 34 33 31 29 29 30 30 30 31 31 33 33 32 33 34 33 30 29 29 30 31
42 41 42 43 43 44 46 47 48 46 47 47 46 46 46 45 42 40 40 40 40 40 38 37 35 34 33 32 32 33 33 33 33 34 34 34 34 33 31 31 31 32 33
46 45 44 45 46 45 46 47 47 49 49 49 50 48 48 47 46 45 44 44 43 42 41 39 38 37 35 36 37 37 35 35 35 35 34 34 34 34 34 34 34 34 34
47 47 45 45 47 49 49 49 49 48 48 49 49 47 48 49 50 50 49 47 46 44 45 44 40 40 40 36 38 41 38 37 39 37 35 35 35 37 38 38 38 38 39
45 46 46 46 47 48 49 51 53 51 50 47 47 49 51 51 51 50 50 50 48 48 47 46 44 43 42 40 39 39 37 39 41 38 39 40 39 39 41 42 42 42 43
44 45 46 47 48 49 51 51 51 51 52 52 50 50 51 52 53 52 52 52 51 50 49 48 48 47 46 44 45 43 45 43 41 43 42 42 44 44 43 43 45 46 49
43 44 45 46 47 47 48 50 51 52 52 52 53 54 53 53 54 54 54 54 53 52 52 52 51 50 48 47 47 45 45 45 43 43 45 46 47 48 48 45 47 50 54
Wind_Direction
256 263 263 261 257 255 255 256 262 266 269 269 268 268 266 266 265 266 269 270 272 275 283 287 288 287 284 283 282 276 273 272 271 274 279 281 283 287 291 294 295 294 293
255 258 259 261 261 261 261 261 262 264 266 268 271 271 270 268 268 265 263 265 271 278 280 286 291 291 291 286 281 280 276 275 276 277 279 282 282 284 289 291 292 293 295
266 264 263 261 263 266 270 271 271 271 274 276 278 281 279 277 274 269 269 270 269 274 282 289 291 293 293 293 290 284 283 281 280 279 280 281 283 285 286 288 290 292 296
264 265 266 268 267 269 272 273 276 276 279 281 284 283 284 284 284 283 280 279 278 277 276 278 281 284 285 285 285 285 282 280 281 282 281 280 279 280 285 291 295 297 299
264 263 264 266 270 272 273 277 281 284 285 288 291 292 290 287 286 285 286 286 285 286 285 284 285 287 286 287 284 284 284 286 284 282 282 282 283 287 289 289 289 293 299
266 271 272 270 271 274 275 277 278 283 285 286 287 288 289 285 284 283 285 287 289 289 288 285 283 283 283 285 286 286 286 285 284 282 281 282 282 282 283 284 287 294 301
259 265 270 275 277 276 277 277 278 277 280 282 285 287 289 292 294 291 289 287 286 288 289 289 290 287 286 284 281 281 280 279 278 278 279 279 281 284 284 285 288 294 301
258 259 263 268 273 274 274 276 278 278 280 280 280 282 285 286 288 290 293 295 294 291 288 288 287 284 283 281 278 276 278 278 277 277 278 278 278 279 280 283 287 292 299
256 261 261 264 267 269 272 274 276 278 278 278 280 280 282 282 285 285 286 287 290 290 288 285 283 283 284 284 281 279 279 278 277 278 276 276 276 277 280 284 288 293 297
254 254 258 261 263 266 268 270 272 273 275 274 276 275 277 278 281 282 284 285 285 285 285 286 285 284 284 286 284 280 280 278 277 276 275 276 274 274 277 282 286 291 294
249 250 251 256 259 263 266 267 269 271 272 274 275 276 275 275 276 277 278 280 281 283 282 281 280 282 283 283 283 283 281 278 276 275 275 276 277 278 281 283 287 289 291
243 247 251 253 257 262 264 264 265 267 270 271 274 276 276 276 276 276 276 276 279 279 279 278 279 280 281 282 281 281 281 282 282 282 282 281 280 282 284 286 287 288 291
249 252 253 255 256 258 260 263 265 268 270 270 274 276 276 275 276 277 278 279 277 276 276 276 276 276 277 277 278 279 280 281 283 283 283 283 283 285 287 287 289 290 291
250 256 258 259 258 258 261 261 262 265 267 270 270 273 275 277 277 278 279 278 277 276 276 276 277 276 275 276 276 278 279 280 283 284 285 285 285 286 288 289 289 288 288
250 255 260 259 258 257 257 259 259 260 263 264 268 270 272 275 276 277 275 275 274 275 276 276 274 275 276 278 279 280 280 282 282 285 285 286 288 290 291 290 290 289 288
249 252 255 259 260 260 259 258 259 258 259 263 265 266 268 269 273 275 274 273 274 275 275 274 273 273 274 276 278 278 278 278 280 281 284 288 290 292 293 291 290 290 288
251 253 257 255 256 257 260 261 261 263 261 260 261 264 265 267 268 269 270 271 271 273 274 273 273 273 275 277 276 276 278 279 279 281 284 286 289 291 292 293 293 292 291
255 254 252 253 255 257 259 259 260 261 263 266 264 264 262 264 266 266 268 270 269 270 273 275 274 272 273 274 274 276 277 278 281 281 282 287 291 291 292 293 294 293 291
248 250 252 252 253 254 256 260 259 262 264 266 269 267 263 263 263 264 266 266 267 268 269 271 273 274 275 272 272 273 276 278 280 280 284 289 290 292 292 291 291 290 291
252 251 252 253 254 256 256 257 259 259 262 264 264 265 265 263 262 264 265 266 267 266 267 269 269 274 274 274 271 271 273 277 280 282 285 287 289 290 290 292 292 289 287
263 262 257 254 255 257 260 259 260 261 261 262 262 262 262 263 263 262 263 264 265 267 267 269 269 270 273 276 275 274 275 277 279 280 283 287 288 289 290 291 291 291 289
265 266 265 262 259 259 259 261 262 261 260 260 260 259 261 263 264 264 262 261 262 264 266 265 267 269 273 274 274 273 273 276 278 280 282 285 287 288 289 289 290 289 288
268 269 270 268 266 262 261 259 261 261 262 262 263 261 260 259 258 259 260 259 260 262 264 264 265 268 271 276 282 273 272 274 275 277 279 283 286 288 288 289 290 291 290
268 268 269 270 268 265 265 265 266 264 263 258 257 258 259 260 261 261 262 262 261 260 260 263 267 269 271 274 275 276 276 282 277 273 278 281 283 285 287 288 289 289 289
269 270 269 268 268 268 268 266 264 266 266 262 257 254 252 256 260 262 262 262 261 261 261 261 264 268 269 270 275 276 279 282 282 288 285 284 285 281 280 283 289 288 287
274 274 274 274 274 272 270 269 268 265 263 263 262 257 253 250 251 255 258 260 260 259 260 261 262 266 269 269 272 273 275 277 280 283 284 286 285 286 279 281 282 280 282
Height
5889 5889 5889 5890 5890 5891 5892 5892 5893 5893 5894 5893 5893 5894 5894 5894 5894 5893 5894 5894 5893 5893 5892 5892 5893 5892 5893 5893 5891 5892 5891 5891 5891 5890 5890 5891 5890 5890 5890 5889 5889 5888 5888
5886 5887 5887 5887 5887 5888 5889 5890 5890 5891 5891 5891 5891 5892 5891 5891 5890 5890 5891 5891 5890 5890 5889 5888 5889 5889 5889 5889 5889 5887 5888 5889 5888 5888 5888 5888 5888 5887 5887 5886 5886 5885 5884
5883 5884 5885 5885 5885 5886 5887 5887 5887 5887 5887 5887 5887 5887 5888 5888 5888 5888 5887 5887 5887 5887 5887 5887 5887 5887 5887 5886 5886 5886 5886 5886 5886 5886 5886 5885 5885 5884 5884 5884 5883 5882 5881
5880 5880 5881 5882 5882 5884 5883 5883 5883 5883 5883 5883 5883 5883 5883 5883 5883 5883 5883 5883 5883 5883 5883 5883 5883 5883 5883 5883 5883 5883 5883 5882 5882 5883 5883 5882 5881 5881 5881 5881 5880 5879 5878
5877 5878 5878 5879 5879 5880 5880 5880 5880 5880 5880 5880 5881 5881 5881 5880 5880 5880 5880 5880 5879 5879 5879 5879 5880 5879 5879 5879 5880 5880 5880 5880 5880 5880 5879 5879 5879 5878 5878 5877 5876 5875 5874
5873 5874 5875 5876 5877 5877 5878 5878 5878 5877 5878 5878 5878 5878 5879 5878 5878 5877 5877 5876 5876 5876 5876 5876 5876 5876 5876 5876 5876 5876 5876 5876 5877 5876 5876 5875 5875 5874 5874 5873 5873 5872 5870
5870 5871 5872 5873 5873 5874 5875 5876 5876 5876 5875 5876 5876 5876 5875 5875 5875 5874 5873 5873 5873 5872 5873 5873 5873 5872 5872 5871 5871 5871 5871 5871 5871 5871 5871 5871 5871 5871 5870 5870 5869 5868 5866
5865 5867 5868 5869 5869 5871 5871 5871 5872 5872 5872 5872 5872 5872 5872 5872 5872 5871 5871 5870 5869 5869 5869 5869 5868 5868 5868 5867 5867 5867 5867 5867 5867 5867 5867 5867 5866 5866 5866 5865 5864 5863 5862
5860 5860 5862 5863 5864 5865 5867 5868 5867 5868 5868 5868 5868 5868 5868 5868 5868 5868 5868 5867 5867 5867 5866 5865 5865 5864 5864 5864 5863 5864 5863 5863 5863 5863 5862 5862 5863 5862 5861 5861 5859 5858 5857
5855 5855 5856 5858 5859 5860 5862 5863 5863 5863 5864 5864 5864 5864 5864 5864 5864 5864 5864 5863 5863 5863 5862 5862 5861 5861 5860 5860 5860 5859 5859 5859 5859 5858 5858 5857 5857 5857 5855 5855 5854 5853 5853
5849 5850 5851 5853 5853 5854 5856 5857 5858 5859 5859 5859 5860 5860 5859 5859 5859 5859 5859 5859 5859 5859 5858 5858 5857 5857 5857 5856 5856 5856 5855 5855 5855 5854 5854 5853 5853 5852 5851 5850 5849 5847 5847
5842 5843 5846 5848 5849 5851 5851 5852 5852 5853 5853 5853 5854 5855 5855 5854 5854 5854 5854 5854 5854 5854 5854 5853 5853 5852 5852 5852 5852 5852 5852 5851 5850 5849 5848 5847 5846 5846 5845 5844 5843 5842 5841
5838 5840 5842 5843 5845 5846 5846 5846 5846 5847 5847 5848 5848 5848 5849 5848 5849 5849 5849 5849 5849 5848 5849 5848 5848 5847 5847 5846 5846 5846 5846 5846 5845 5844 5843 5842 5841 5840 5839 5838 5836 5836 5834
5834 5836 5837 5838 5839 5840 5840 5841 5841 5841 5841 5842 5841 5842 5843 5843 5843 5844 5844 5843 5843 5842 5842 5842 5842 5842 5841 5840 5840 5840 5840 5839 5838 5838 5837 5836 5835 5834 5833 5832 5830 5829 5828
5830 5830 5831 5831 5832 5833 5834 5835 5836 5836 5835 5835 5835 5837 5838 5838 5838 5838 5839 5837 5836 5836 5836 5836 5836 5835 5835 5835 5835 5835 5834 5834 5833 5832 5831 5831 5830 5828 5827 5826 5825 5823 5822
5823 5824 5824 5824 5825 5826 5829 5831 5830 5829 5829 5829 5830 5831 5832 5832 5833 5833 5833 5832 5830 5830 5830 5829 5829 5829 5829 5829 5829 5829 5828 5828 5827 5827 5826 5825 5824 5823 5822 5820 5819 5818 5816
5818 5818 5818 5818 5818 5820 5821 5822 5823 5824 5823 5823 5824 5825 5826 5826 5826 5826 5826 5826 5824 5824 5824 5823 5822 5823 5823 5823 5823 5822 5822 5821 5821 5820 5820 5819 5818 5817 5816 5815 5814 5812 5811
5811 5811 5811 5811 5812 5812 5813 5814 5815 5816 5817 5817 5818 5818 5819 5819 5819 5819 5819 5819 5818 5818 5818 5817 5816 5816 5816 5816 5816 5816 5816 5815 5815 5814 5813 5813 5812 5811 5809 5808 5807 5806 5805
5802 5804 5804 5804 5805 5804 5805 5806 5806 5808 5809 5810 5811 5811 5811 5812 5811 5811 5812 5811 5811 5811 5811 5810 5810 5810 5809 5809 5808 5809 5809 5809 5808 5808 5807 5806 5805 5804 5802 5800 5799 5798 5797
5793 5795 5797 5798 5798 5797 5797 5797 5798 5799 5800 5801 5802 5803 5803 5803 5803 5803 5804 5803 5803 5804 5804 5804 5803 5803 5802 5802 5801 5800 5800 5801 5801 5800 5800 5799 5798 5796 5795 5793 5792 5790 5789
5785 5786 5788 5790 5791 5791 5790 5789 5789 5791 5791 5791 5791 5793 5793 5793 5795 5795 5795 5795 5795 5795 5795 5796 5797 5796 5795 5795 5794 5793 5792 5793 5792 5792 5792 5791 5790 5789 5787 5786 5784 5783 5781
5776 5776 5777 5779 5780 5781 5781 5781 5781 5781 5781 5781 5781 5782 5782 5783 5785 5785 5785 5785 5785 5786 5786 5787 5788 5788 5787 5787 5787 5785 5785 5785 5784 5783 5783 5783 5782 5781 5780 5778 5776 5774 5772
5765 5766 5768 5768 5769 5769 5770 5770 5770 5769 5770 5771 5772 5772 5772 5771 5771 5772 5773 5774 5776 5776 5776 5776 5778 5779 5779 5778 5777 5777 5777 5777 5776 5775 5774 5774 5773 5772 5771 5769 5767 5765 5763
5754 5755 5756 5756 5757 5757 5757 5759 5759 5759 5759 5760 5760 5759 5758 5758 5759 5760 5762 5763 5765 5766 5767 5768 5768 5769 5769 5769 5767 5767 5767 5768 5766 5767 5766 5765 5764 5762 5760 5759 5757 5755 5753
5744 5745 5745 5745 5745 5745 5745 5746 5746 5747 5748 5747 5747 5747 5747 5747 5747 5749 5750 5751 5753 5755 5756 5757 5757 5758 5758 5758 5759 5758 5758 5758 5757 5757 5756 5754 5752 5750 5749 5747 5746 5744 5741
5735 5735 5734 5734 5733 5733 5733 5732 5732 5732 5731 5733 5734 5734 5733 5734 5735 5736 5737 5738 5739 5742 5744 5745 5746 5747 5748 5748 5747 5748 5747 5747 5747 5746 5744 5743 5740 5739 5738 5735 5732 5731 5729